Location: Sungai Laei
(2.6000°N, 113.7167°E)
Time: 16:09:35
(UTC+00:00)

ATLAS 5 CENTAUR R/B - Visible Passes

Search period start: 06 October 2022 00:00
Search period end: 16 October 2022 00:00
Orbit: 470 x 1179 km, 63.4° (Epoch: 03 October)

Date Brightness Start Highest point End Pass type
(mag) Time Alt. Az. Time Alt. Az. Time Alt. Az.
09 Oct 3.7 11:43:53 10° S 11:44:21 12° S 11:44:21 12° S visible
10 Oct 2.8 11:23:28 10° S 11:25:20 20° SSE 11:25:20 20° SSE visible
11 Oct 2.4 11:03:04 10° SSE 11:06:06 21° ESE 11:06:23 21° ESE visible
12 Oct 2.7 10:42:44 10° SSE 10:45:27 18° ESE 10:47:31 12° ENE visible
12 Oct 4.4 12:28:34 10° W 12:29:02 11° WNW 12:29:02 11° WNW visible
12 Oct 5.5 21:37:09 10° NE 21:40:09 13° ENE 21:43:15 10° E visible
13 Oct 4.0 12:07:10 10° W 12:08:58 13° WNW 12:10:14 11° NW visible
13 Oct 5.6 21:17:27 10° NE 21:19:30 11° ENE 21:21:36 10° E visible
14 Oct 3.9 11:46:03 10° WSW 11:48:21 15° WNW 11:50:33 10° NNW visible
15 Oct 3.8 11:25:04 10° WSW 11:27:44 18° WNW 11:30:17 10° NNW visible
